STARLINK-11500 [DTC]

Last updated on Fri Jan 31 2025 00:02:04 GMT+0000 (Coordinated Universal Time)

1 62472U 24254L 25030.58334491 .00067862 00000+0 39046-3 0 9998 2 62472 42.9968 134.1251 0002324 273.5710 240.8608 15.77812333 5490
UTC large
Height (km)
Speed (km/s)
/
Latitude / Longitude
Inclination (degrees)
Orbital Period (minutes)
Azimuth
Elevation
Range (km)
Doppler Factor

Next 0 passes for location: London (51.5072 / 0.1276)

Sorry there are no passes over London.